Temp
28 21 16 20 23 24 22 18 16 21 28 25 23 24 29 34 34 33 35 36 36 38 43 45 47 48 49 47 52 54 53 53 54 57 60 61 60 60 60 60 60 60 59 59
20 14 26 28 28 25 23 18 17 24 28 26 24 23 29 31 32 32 31 31 32 35 39 42 44 46 47 48 49 51 52 53 53 57 60 62 61 60 60 60 59 60 59 58
14 21 30 27 25 23 22 19 19 18 25 25 22 18 25 28 26 29 30 31 31 31 31 33 35 42 43 43 46 49 51 53 53 56 60 59 59 58 58 57 57 57 58 57
15 25 26 23 19 24 14 26 24 22 15 8 22 7 21 21 21 25 26 27 28 29 32 33 34 34 43 45 46 48 50 51 54 56 58 59 58 57 57 57 57 57 57 56
17 20 21 16 22 27 16 27 22 19 14 13 13 9 16 19 17 20 24 27 27 29 30 31 33 34 34 45 45 45 48 51 53 54 57 58 58 58 57 56 55 54 55 55
22 28 20 21 28 27 26 17 18 9 5 1 12 12 16 13 17 19 22 24 26 27 28 30 33 35 33 33 36 40 44 49 53 54 55 57 58 56 55 55 54 53 53 53
17 19 27 29 12 15 9 2 -8 -7 -8 -4 19 13 16 16 20 20 19 21 24 25 26 27 28 32 34 33 34 36 41 46 51 53 54 57 57 56 55 54 53 52 51 51
-0 3 17 28 19 10 4 4 -1 -4 -10 5 19 1 13 20 23 24 23 22 23 23 24 25 26 31 32 32 34 36 41 44 49 53 53 55 57 57 57 55 54 53 51 52
-7 4 25 28 26 18 6 7 16 10 -10 -5 5 14 17 25 22 21 19 21 20 21 22 24 26 29 30 31 31 32 36 38 41 50 50 53 55 55 55 55 55 54 53 51
8 2 22 23 22 19 17 23 7 6 -4 -8 0 5 7 12 14 16 15 16 18 20 21 23 24 25 29 30 31 32 34 34 36 40 45 49 53 55 54 54 53 52 52 51
5 5 8 15 2 3 7 9 17 17 9 1 -2 2 8 10 14 13 15 17 17 18 19 21 22 24 26 29 29 30 32 32 33 36 40 41 44 48 52 52 52 50 46 46
17 2 -3 4 15 14 12 13 18 9 3 7 8 7 10 14 16 16 15 17 19 19 19 20 21 22 25 26 28 28 30 30 32 33 35 36 38 40 39 41 42 46 46 47
16 5 -2 2 7 10 7 11 19 17 14 6 5 5 12 15 16 16 15 16 17 19 18 19 20 20 22 23 25 27 29 28 30 32 33 34 35 36 36 35 36 39 44 43
23 13 7 0 3 -2 8 11 16 14 7 3 8 7 15 15 13 14 14 15 15 16 17 17 18 19 21 22 22 23 24 27 28 30 31 31 32 33 34 34 34 35 36 39
21 12 -1 8 6 -0 9 8 10 9 12 8 6 5 15 11 12 13 15 15 15 15 15 16 16 18 19 20 21 22 23 24 26 26 27 27 28 32 33 33 34 34 35 35
18 11 2 -1 5 -13 -4 4 8 10 12 12 10 10 11 10 13 14 14 13 13 13 14 15 16 17 18 19 20 21 21 23 25 23 24 25 26 27 30 31 32 33 33 34
15 13 6 -4 -2 -3 -1 1 4 5 7 11 7 12 13 9 10 11 12 13 12 12 13 13 14 16 17 19 20 20 21 22 22 21 23 23 25 26 27 29 30 30 31 33
16 12 12 -5 -1 -10 7 2 7 9 7 12 12 12 7 6 9 10 13 12 12 11 12 12 13 14 16 18 20 20 21 21 20 20 20 22 24 24 26 27 27 28 30 30
20 16 8 -3 -8 3 11 7 11 7 9 8 13 9 7 6 11 11 10 10 9 10 11 12 13 13 15 15 18 19 18 18 19 17 17 18 19 20 22 23 24 26 28 29
17 18 9 -1 -4 -9 4 10 11 8 6 8 9 6 9 15 5 6 5 4 9 9 8 9 11 13 13 13 18 18 16 15 14 17 17 18 18 18 17 18 21 23 25 27
9 11 7 -0 -1 4 10 15 20 5 10 6 6 8 13 13 10 3 -3 1 -2 1 5 10 10 10 9 12 16 14 13 10 12 14 16 17 18 18 17 17 19 18 19 21
9 6 4 3 3 -1 15 18 14 16 7 6 5 9 12 9 6 5 4 4 5 4 7 8 7 8 9 11 12 11 9 10 11 13 14 14 14 18 18 16 17 17 18 18
11 14 12 12 10 17 14 15 11 5 12 9 15 13 16 14 12 13 13 14 14 12 9 8 6 7 7 6 8 7 6 7 8 8 9 11 12 15 15 14 14 16 14 16
16 18 15 13 18 17 17 19 12 12 18 21 21 19 19 17 16 15 15 15 14 14 12 10 8 8 7 7 8 4 6 5 -0 1 6 10 11 12 14 17 18 16 14 13
19 20 18 16 21 20 20 21 22 17 14 19 19 19 19 17 14 13 15 16 15 15 12 9 7 8 7 6 5 2 3 1 5 6 8 8 9 6 9 13 12 17 19 22
22 20 16 16 24 22 23 23 24 22 21 21 19 18 20 19 16 16 15 15 14 13 10 7 6 5 3 1 1 -1 -5 -3 -2 5 5 4 5 5 8 8 10 21 25 28
MSLP
1018.57 1018.99 1018.59 1017.69 1017.77 1017.23 1016.79 1016.34 1015.09 1013.54 1012.14 1012.74 1011.00 1010.04 1006.65 1006.16 1006.90 1005.92 1005.09 1004.70 1004.12 1003.49 1002.71 1002.46 1002.16 1001.60 1001.16 1000.38 1000.09 999.94 999.99 999.98 1000.07 999.59 999.02 999.39 999.91 1000.55 1001.31 1001.71 1002.44 1003.37 1003.61 1004.32
1019.46 1018.50 1016.89 1016.95 1016.87 1016.67 1016.39 1015.73 1014.08 1012.79 1012.06 1012.01 1010.32 1008.91 1006.11 1006.09 1005.67 1005.54 1005.43 1004.99 1004.56 1003.61 1002.75 1001.95 1001.35 1000.88 1000.38 999.85 999.47 999.33 999.00 998.99 999.06 999.02 998.36 998.56 999.13 999.64 1000.78 1001.35 1002.16 1002.79 1003.27 1003.74
1019.05 1017.03 1016.81 1016.74 1016.25 1016.03 1015.29 1015.37 1014.08 1013.20 1011.61 1011.79 1010.46 1008.48 1006.95 1006.07 1006.22 1006.24 1005.94 1005.73 1005.32 1004.72 1003.78 1002.84 1002.08 1000.80 999.84 999.20 998.95 998.54 998.31 998.01 997.92 998.07 997.84 998.07 998.86 999.49 1000.47 1000.94 1001.76 1002.34 1002.84 1003.44
1018.69 1017.23 1016.82 1016.24 1015.95 1015.72 1015.03 1014.29 1013.99 1013.47 1013.43 1011.59 1011.15 1009.68 1006.98 1006.52 1006.68 1006.63 1006.45 1006.19 1005.65 1004.95 1004.01 1003.05 1002.10 1001.04 999.58 998.45 998.15 997.81 997.55 997.35 997.03 997.01 997.35 997.24 997.92 998.48 999.48 1000.25 1001.00 1002.10 1002.63 1003.30
1017.61 1017.00 1016.69 1016.14 1015.43 1015.26 1014.93 1014.54 1014.54 1014.07 1013.72 1013.16 1010.90 1010.99 1006.63 1007.01 1007.12 1007.16 1006.99 1006.69 1006.06 1005.20 1004.37 1003.37 1002.15 1001.03 999.77 998.06 997.43 997.08 996.92 996.56 996.38 996.43 996.63 996.53 997.48 998.10 998.97 999.92 1000.77 1001.71 1002.52 1003.10
1017.54 1016.75 1016.50 1015.49 1015.01 1015.32 1015.34 1015.40 1014.80 1014.77 1014.79 1013.97 1011.27 1010.70 1006.74 1008.07 1008.21 1007.80 1007.39 1006.97 1006.24 1005.36 1004.51 1003.54 1002.21 1000.78 999.70 998.67 997.75 996.79 996.26 995.89 995.49 995.81 995.92 996.11 996.87 997.61 998.48 999.45 1000.56 1001.32 1002.18 1002.98
1018.22 1016.88 1015.50 1015.07 1015.82 1015.91 1016.58 1017.09 1017.01 1016.60 1016.02 1013.93 1011.28 1010.43 1008.13 1008.40 1008.48 1008.27 1007.53 1007.01 1006.40 1005.62 1004.68 1003.46 1002.15 1000.65 999.73 998.89 998.20 997.26 996.24 995.50 994.90 995.05 995.28 995.69 995.94 997.09 997.92 998.84 999.93 1001.07 1002.07 1002.90
1020.02 1017.42 1016.03 1015.19 1015.76 1016.70 1017.19 1017.73 1017.99 1017.20 1016.54 1013.17 1011.54 1010.08 1008.23 1008.45 1008.48 1008.42 1008.14 1007.49 1006.71 1005.93 1004.98 1003.76 1002.44 1000.93 999.92 999.15 998.56 997.63 996.34 995.46 994.68 994.34 994.84 995.17 995.50 996.35 997.27 998.30 999.19 1000.37 1001.86 1002.84
1020.48 1018.20 1016.05 1015.55 1015.46 1016.29 1016.90 1017.09 1016.14 1016.02 1015.52 1015.05 1011.74 1009.74 1009.22 1008.37 1008.39 1008.43 1008.27 1007.82 1007.22 1006.37 1005.32 1004.12 1002.76 1001.53 1000.22 999.51 999.00 998.10 996.90 995.71 995.12 994.04 994.64 995.24 995.68 996.18 996.91 997.91 998.82 998.96 1000.97 1002.53
1019.77 1018.91 1016.52 1016.01 1015.83 1015.79 1016.13 1015.83 1015.67 1015.59 1015.42 1014.68 1012.11 1010.89 1010.06 1009.68 1009.50 1009.21 1008.83 1008.40 1007.59 1006.77 1005.75 1004.54 1003.34 1002.15 1000.91 1000.00 999.30 998.38 997.64 996.34 995.58 994.95 995.10 995.55 995.80 996.30 997.07 997.97 998.81 999.70 1000.72 1001.91
1019.63 1020.06 1017.84 1017.35 1017.00 1016.28 1016.38 1015.86 1015.07 1014.74 1014.84 1014.35 1012.80 1011.22 1010.94 1010.83 1010.50 1009.97 1009.43 1008.91 1008.18 1007.33 1006.33 1005.19 1004.05 1002.85 1001.59 1000.49 999.69 998.91 998.12 997.09 996.40 996.10 995.96 996.45 996.58 996.67 997.29 998.16 998.97 999.82 1000.70 1001.66
1018.88 1019.56 1018.94 1017.85 1016.36 1016.29 1016.26 1015.72 1014.88 1014.67 1014.40 1014.00 1013.47 1011.20 1010.76 1010.92 1010.87 1010.51 1010.00 1009.41 1008.71 1008.01 1007.14 1006.00 1004.84 1003.75 1002.44 1001.29 1000.39 999.70 998.95 998.09 997.88 997.44 997.13 997.65 997.96 997.61 998.05 998.69 999.36 999.94 1001.03 1001.89
1018.20 1019.17 1019.44 1017.95 1017.62 1016.94 1016.65 1015.95 1015.27 1014.79 1014.18 1013.38 1013.47 1011.08 1010.56 1010.78 1010.92 1010.81 1010.54 1009.99 1009.34 1008.59 1007.66 1006.74 1005.65 1004.91 1003.75 1002.75 1001.67 1000.80 1000.03 999.25 999.11 998.76 998.57 998.80 999.19 999.13 999.56 999.96 1000.36 1000.54 1000.89 1001.59
1017.44 1017.75 1018.91 1019.17 1018.56 1018.35 1017.37 1015.85 1015.23 1015.20 1014.35 1013.19 1012.30 1011.19 1010.83 1011.19 1011.45 1011.18 1010.95 1010.68 1010.14 1009.47 1008.72 1007.73 1006.87 1006.15 1005.13 1004.11 1002.88 1002.13 1001.38 1000.47 1000.36 1000.02 999.79 999.85 1000.25 1000.28 1000.55 1000.92 1001.18 1001.58 1001.61 1002.07
1016.48 1016.73 1018.31 1018.36 1018.41 1018.28 1017.29 1016.02 1014.66 1014.66 1013.61 1013.31 1011.72 1012.11 1011.72 1012.08 1012.22 1012.02 1011.69 1011.26 1010.73 1010.10 1009.48 1008.72 1008.12 1007.44 1006.50 1005.52 1004.54 1003.94 1002.91 1001.93 1001.96 1001.25 1001.21 1001.78 1002.00 1001.76 1001.90 1002.03 1002.15 1002.55 1002.38 1002.54
1015.54 1016.34 1017.64 1018.22 1018.14 1018.33 1017.34 1015.45 1014.44 1013.82 1013.31 1012.75 1012.42 1012.17 1012.09 1012.34 1012.56 1012.55 1012.28 1011.97 1011.66 1011.24 1010.64 1009.99 1009.18 1008.45 1007.58 1006.82 1006.12 1005.45 1004.14 1003.67 1002.99 1003.11 1003.25 1003.27 1003.31 1003.13 1003.08 1003.14 1003.39 1003.35 1003.20 1003.43
1015.10 1015.87 1017.30 1017.82 1018.21 1017.71 1016.56 1014.52 1013.97 1013.32 1012.85 1012.52 1012.52 1012.16 1012.56 1012.77 1013.06 1013.28 1013.22 1012.87 1012.70 1012.48 1011.90 1011.20 1010.60 1009.83 1008.94 1007.71 1006.82 1006.13 1005.85 1005.32 1004.87 1004.82 1004.87 1004.74 1004.53 1004.38 1004.59 1004.52 1004.40 1004.46 1004.79 1004.66
1013.85 1015.23 1016.55 1017.67 1017.90 1017.29 1014.63 1013.86 1013.65 1013.38 1012.70 1012.42 1012.37 1012.34 1012.78 1013.21 1013.40 1013.70 1013.99 1014.04 1013.89 1013.63 1013.24 1012.59 1011.82 1010.91 1010.08 1009.38 1008.37 1007.48 1006.88 1006.27 1006.33 1006.08 1005.88 1005.91 1005.78 1005.67 1005.83 1005.74 1005.77 1005.76 1005.83 1005.77
1013.27 1014.48 1015.78 1017.14 1017.52 1015.85 1013.63 1013.42 1013.33 1013.31 1012.90 1012.31 1012.57 1012.71 1013.13 1013.31 1013.93 1014.09 1014.16 1014.46 1014.61 1014.47 1014.16 1013.75 1013.02 1012.14 1011.25 1010.26 1009.39 1008.87 1008.43 1008.10 1007.59 1007.79 1007.79 1007.86 1007.23 1007.20 1007.34 1006.91 1006.82 1006.87 1006.75 1006.59
1013.14 1013.70 1015.18 1016.60 1016.54 1015.59 1013.51 1012.70 1012.73 1013.00 1012.74 1012.49 1012.82 1013.05 1013.34 1013.72 1014.34 1014.58 1014.64 1014.67 1014.75 1014.57 1014.34 1014.01 1013.47 1012.99 1012.34 1011.69 1010.82 1010.13 1009.65 1009.11 1008.90 1009.06 1008.84 1008.44 1008.27 1008.09 1007.85 1008.02 1008.05 1008.03 1007.92 1007.74
1013.31 1013.65 1014.13 1015.00 1015.19 1013.73 1012.31 1012.04 1012.21 1012.87 1013.04 1012.59 1012.78 1013.02 1013.29 1013.70 1014.10 1014.53 1014.64 1015.00 1015.19 1014.82 1014.37 1013.99 1013.58 1013.28 1013.09 1012.50 1011.81 1011.35 1011.39 1011.26 1011.17 1010.49 1009.81 1009.29 1008.92 1008.56 1009.02 1009.09 1009.07 1008.96 1008.72 1008.55
1012.76 1013.05 1013.61 1014.26 1014.10 1012.77 1011.50 1011.96 1012.00 1011.76 1011.90 1012.45 1012.70 1012.81 1012.95 1013.25 1013.81 1014.47 1014.58 1014.78 1014.99 1014.86 1014.49 1014.26 1014.11 1013.87 1013.57 1013.08 1012.45 1012.26 1012.18 1012.31 1011.63 1010.88 1010.37 1009.84 1009.61 1009.52 1009.73 1009.64 1009.76 1009.75 1009.39 1009.36
1012.14 1011.58 1011.73 1012.11 1011.30 1010.46 1010.71 1010.60 1010.33 1010.74 1011.32 1011.61 1011.79 1011.99 1012.34 1012.88 1013.41 1013.75 1014.02 1014.25 1014.36 1014.47 1014.60 1014.70 1014.64 1014.37 1013.97 1013.59 1013.29 1013.11 1013.22 1012.72 1012.12 1011.63 1011.59 1011.61 1011.39 1011.04 1010.73 1010.52 1010.41 1010.45 1010.23 1010.00
1010.91 1010.64 1010.89 1010.83 1009.79 1009.77 1009.70 1009.64 1010.07 1010.52 1010.67 1010.54 1010.80 1011.27 1011.79 1012.29 1012.74 1013.16 1013.44 1013.79 1014.05 1014.38 1014.61 1014.65 1014.57 1014.53 1014.52 1014.41 1014.34 1014.41 1014.20 1013.81 1013.39 1013.14 1012.82 1012.43 1012.09 1011.91 1011.73 1011.47 1011.25 1010.83 1010.63 1010.61
1009.96 1010.14 1009.79 1009.68 1008.93 1008.78 1008.89 1009.19 1009.22 1009.56 1010.02 1010.16 1010.52 1010.89 1011.39 1012.02 1012.62 1012.92 1013.35 1013.70 1013.94 1014.24 1014.63 1014.96 1015.26 1015.44 1015.48 1015.36 1015.22 1015.15 1015.07 1014.86 1014.29 1013.78 1013.44 1013.21 1013.04 1012.87 1012.48 1012.02 1011.61 1011.15 1010.82 1010.52
1009.25 1009.13 1009.26 1008.75 1008.21 1008.37 1008.36 1008.33 1008.48 1009.01 1009.40 1009.85 1010.31 1010.89 1011.32 1011.78 1012.33 1012.86 1013.30 1013.65 1014.13 1014.59 1014.96 1015.24 1015.62 1015.79 1015.94 1015.93 1015.87 1015.87 1015.77 1015.54 1015.16 1014.67 1014.48 1014.33 1014.03 1013.78 1013.41 1013.01 1012.23 1011.32 1010.91 1010.54
Wind_Speed
2 1 11 13 17 17 12 15 18 23 24 17 20 21 32 28 18 22 21 20 21 22 22 20 20 20 20 12 15 17 13 12 7 7 8 9 10 8 8 9 12 14 13 15
3 10 17 8 9 14 15 18 22 25 14 9 22 27 32 25 20 12 10 11 13 14 16 18 19 19 19 18 14 15 12 10 9 6 6 9 8 8 8 10 10 14 15 15
9 11 7 12 13 15 18 15 19 21 23 10 15 16 17 4 5 8 10 11 13 13 16 15 17 20 16 13 13 14 14 12 10 9 7 7 5 5 7 9 9 10 14 14
8 5 7 11 10 12 14 8 15 17 11 12 7 15 11 3 3 11 13 13 16 17 17 17 18 19 21 17 13 12 12 10 11 10 9 13 10 8 5 9 9 9 12 12
12 7 8 8 11 3 12 13 13 17 17 14 3 7 5 6 6 15 16 16 17 17 17 19 19 16 18 16 13 11 13 10 11 8 11 12 12 8 8 9 12 11 8 9
18 3 4 7 6 3 10 6 15 4 2 3 8 7 15 2 8 13 13 15 17 19 18 18 19 14 12 10 9 7 9 13 12 11 11 15 16 12 11 11 10 9 8 8
4 5 4 4 6 6 8 8 6 8 5 7 7 13 12 1 5 9 15 16 17 17 17 17 19 14 13 13 12 9 7 12 11 11 10 15 18 15 15 14 10 10 8 6
1 11 3 3 6 7 3 7 4 7 3 17 10 7 5 5 4 11 13 16 17 17 16 17 18 12 10 11 12 11 9 11 8 10 10 10 15 12 12 14 12 10 9 10
3 9 4 11 7 9 6 2 5 6 1 4 4 7 6 12 16 18 17 17 17 17 17 16 16 16 10 9 10 10 9 3 5 5 7 8 11 13 11 12 11 12 12 10
4 8 5 2 4 3 5 2 5 1 6 7 6 6 5 14 15 16 15 16 17 17 17 15 15 16 12 9 9 8 7 5 6 7 7 4 8 10 11 10 11 11 11 11
4 4 8 4 2 7 5 5 5 3 3 4 7 6 5 7 10 14 14 16 16 16 16 15 14 16 14 9 9 8 7 9 10 9 9 8 6 7 11 10 10 9 8 9
5 5 6 12 10 5 5 5 2 2 7 4 5 10 4 5 6 10 13 15 16 15 15 14 15 16 14 12 11 10 9 12 10 10 11 10 8 10 9 7 6 10 10 11
5 3 5 13 7 5 2 4 5 7 3 9 5 8 3 3 8 10 12 13 14 16 16 15 15 16 15 13 11 11 10 12 11 11 11 12 11 11 10 8 6 4 7 7
8 7 9 11 12 2 11 16 15 8 5 4 9 11 13 12 10 12 12 12 12 13 14 14 14 15 14 13 13 13 11 13 11 11 13 15 12 11 11 9 8 6 3 6
4 10 5 9 10 5 17 21 21 12 12 7 5 5 15 6 6 9 9 11 12 14 15 15 14 14 13 13 13 12 12 14 11 14 15 13 11 12 11 11 10 8 7 5
6 5 4 4 8 1 7 11 11 13 11 12 8 11 3 4 3 7 10 10 11 13 14 14 15 15 14 13 11 11 13 13 13 14 14 12 12 12 12 11 10 9 9 7
6 5 2 6 3 7 8 7 5 3 3 5 4 6 2 3 3 3 7 9 10 11 13 14 14 13 13 13 13 14 11 11 13 14 13 13 12 13 12 11 11 11 9 7
6 5 3 4 5 3 9 3 3 5 8 7 6 3 3 4 3 2 1 3 6 8 10 11 11 12 13 12 12 11 11 13 12 14 14 13 12 13 11 11 11 9 7 8
12 6 2 2 3 8 8 3 4 4 8 5 8 1 2 1 2 4 3 1 2 3 5 5 7 9 10 12 12 11 11 11 13 13 12 9 10 10 9 11 10 8 7 7
5 10 5 3 4 5 9 4 3 3 5 3 5 4 4 5 2 4 4 3 5 4 3 5 7 6 8 11 10 11 12 13 14 11 10 9 8 10 10 8 8 6 4 6
3 2 10 4 3 8 7 4 4 5 6 2 4 5 4 4 4 4 1 3 3 4 6 6 7 7 8 8 7 9 9 11 8 7 7 9 9 10 8 6 5 5 5 6
6 6 4 3 3 8 5 4 5 7 2 3 4 4 4 3 2 2 2 2 3 5 6 6 6 6 7 9 9 9 11 8 8 8 9 10 9 8 7 7 7 6 6 7
3 5 4 8 7 4 6 6 4 3 4 5 4 5 6 6 5 6 4 3 0 2 3 2 3 5 6 8 8 9 9 10 10 9 8 7 6 6 6 6 6 5 5 5
4 4 3 3 4 5 6 5 3 5 4 3 4 7 8 6 6 6 4 3 2 1 1 2 5 7 7 7 7 5 7 8 6 5 6 5 7 7 6 4 3 3 4 4
2 4 2 4 7 3 4 5 4 3 3 3 4 7 8 7 6 6 5 5 3 1 1 2 3 3 4 5 6 6 7 6 6 5 6 6 5 5 6 5 2 2 2 1
4 5 3 5 6 2 4 2 3 4 5 7 7 6 6 7 8 6 6 5 4 3 1 2 3 3 3 3 2 2 3 4 4 4 5 5 4 4 4 4 5 8 10 10
Wind_Direction
4 256 237 235 215 237 264 268 266 281 285 292 286 281 281 291 293 276 271 267 268 267 267 261 260 256 256 248 242 239 235 241 249 266 228 206 200 180 177 175 172 177 170 168
345 232 251 248 238 247 258 268 283 286 284 309 294 284 285 294 279 310 331 345 333 313 290 272 261 254 252 250 242 244 230 232 240 243 223 208 193 174 189 170 173 179 174 174
198 247 312 275 275 282 270 276 281 276 300 275 280 282 300 311 59 359 2 340 330 326 316 310 315 284 251 243 240 240 244 232 230 228 233 189 184 144 173 174 168 181 177 174
240 276 262 287 267 274 281 242 275 287 314 295 55 287 311 282 326 353 344 338 330 324 323 318 307 308 276 254 241 237 240 238 232 220 222 196 203 178 175 169 162 172 175 166
254 274 286 275 257 242 247 304 281 269 266 295 297 228 273 25 336 344 328 323 322 321 325 318 309 301 306 269 242 233 238 232 236 216 217 193 190 179 144 157 157 156 164 156
256 284 221 230 285 259 308 323 293 357 145 240 248 202 300 312 326 314 316 319 319 321 321 314 315 304 305 321 307 265 227 235 227 211 208 189 186 167 153 154 160 154 159 153
306 240 260 201 358 347 41 29 326 348 359 235 300 298 262 14 334 325 318 321 326 325 323 320 325 312 317 322 319 304 268 245 217 204 192 192 176 169 156 150 153 146 156 156
214 318 220 162 161 221 230 155 182 290 277 294 286 245 261 182 11 341 332 327 330 328 325 321 328 314 323 326 314 304 278 254 228 186 192 189 182 174 171 161 154 152 164 180
138 268 250 285 289 135 272 228 221 278 71 3 264 291 122 344 348 343 338 337 333 330 330 326 336 334 331 337 323 322 304 359 351 143 188 175 174 167 165 161 169 151 159 170
267 304 249 306 12 298 181 288 321 318 312 299 280 282 260 334 328 333 333 336 333 333 334 335 342 338 331 337 329 342 323 27 34 48 75 116 151 154 149 147 147 152 151 164
151 158 278 31 216 202 342 299 227 258 205 269 307 268 215 279 323 324 335 340 336 335 337 339 344 342 333 342 351 358 7 34 42 39 68 69 70 124 138 149 144 144 135 144
208 183 271 241 268 200 195 234 253 255 289 236 271 278 227 270 313 337 339 339 340 340 339 346 352 346 350 355 5 8 18 41 33 48 58 58 58 64 72 77 100 142 156 166
187 235 321 324 350 7 126 253 244 274 298 255 263 265 217 338 354 349 343 342 342 346 349 350 359 351 354 356 2 9 17 41 36 47 58 59 53 60 60 57 57 86 136 146
188 198 190 239 240 171 298 286 278 273 245 253 236 292 309 341 345 345 343 343 343 348 351 354 1 352 353 356 9 10 15 37 32 49 54 53 44 47 49 44 48 48 78 137
235 261 196 252 270 258 274 276 282 265 239 234 267 262 309 310 326 330 331 345 354 354 357 355 355 353 356 3 13 16 24 35 29 47 47 44 35 42 45 43 40 33 50 62
189 246 148 272 272 37 259 252 252 252 252 245 272 288 209 263 316 351 344 354 360 354 353 353 351 351 359 5 11 12 25 30 39 48 49 43 41 44 39 37 35 36 36 34
194 195 151 259 243 325 324 235 198 248 238 177 228 232 183 292 352 347 344 352 354 354 352 353 348 348 351 358 6 16 17 31 43 47 44 40 42 44 37 36 35 33 27 31
186 168 188 260 6 347 242 239 172 212 244 226 289 261 213 227 201 292 30 352 351 352 353 349 347 347 355 355 9 10 21 33 38 45 42 35 40 43 34 38 36 28 23 28
208 186 224 173 204 293 318 291 183 150 290 215 227 254 290 292 78 304 315 22 304 318 330 332 334 339 349 0 360 16 28 30 36 34 37 30 38 45 41 39 29 24 17 25
225 205 159 133 186 220 238 278 172 112 307 236 158 195 174 165 60 261 290 317 339 342 314 338 337 352 7 354 356 27 27 23 23 18 21 24 32 40 39 32 27 18 8 21
97 149 204 216 276 288 244 215 155 68 248 194 173 190 195 204 197 206 284 304 272 284 330 355 358 13 359 350 5 36 31 27 356 350 15 30 30 40 32 26 28 18 31 33
175 162 187 119 213 281 167 106 163 216 272 189 191 199 202 171 173 179 214 260 306 330 340 359 5 4 355 2 11 24 26 353 358 7 23 22 18 25 25 36 26 23 33 42
243 207 183 189 210 233 225 210 247 180 185 206 182 190 174 162 192 182 183 168 255 336 327 326 349 346 356 1 17 18 356 354 357 15 21 21 12 11 5 24 26 28 24 42
234 165 236 66 286 252 233 248 222 184 228 203 191 163 173 178 173 181 162 186 198 200 331 345 11 11 7 7 18 9 357 349 359 13 9 7 20 7 15 18 19 25 27 18
201 136 227 261 271 252 250 231 256 195 212 202 159 169 182 162 187 175 182 188 199 196 38 30 9 357 0 348 357 359 359 352 0 8 16 17 14 6 358 357 329 349 302 353
193 189 208 236 243 195 264 267 179 213 208 200 170 171 181 178 180 178 189 185 186 202 140 11 357 0 313 307 324 346 351 6 9 25 13 5 1 357 2 360 345 357 14 6